RYR1SR LEBL-LEMH

Flight info

Callsign RYR1SR
Flight time 0h 38m
Altitude 19000
Route DUNES Q700 SARGO
Aircraft B738/M-SDE3FGILRWY/SB1

Departure

Time 2026-05-07 15:32
Airport Josep Tarradellas Barcelona-El Prat Airport (LEBL)

Arrival

Time 2026-05-07 16:11
Airport Menorca Airport (LEMH)
Time Latitude Longitude Altitude Speed Heading
2026-05-07 15:10 41.30140 2.07522 20 ft 0 kts 278°
2026-05-07 15:25 41.30138 2.07544 20 ft 4 kts 280°
2026-05-07 15:25 41.30130 2.07574 20 ft 2 kts 303°
2026-05-07 15:25 41.30115 2.07597 23 ft 4 kts 332°
2026-05-07 15:25 41.30096 2.07610 22 ft 4 kts 335°
2026-05-07 15:26 41.30071 2.07625 20 ft 4 kts 335°
2026-05-07 15:26 41.30048 2.07639 21 ft 4 kts 323°
2026-05-07 15:26 41.30035 2.07664 18 ft 4 kts 266°
2026-05-07 15:26 41.30042 2.07697 19 ft 4 kts 244°
2026-05-07 15:27 41.30053 2.07727 19 ft 3 kts 245°
2026-05-07 15:27 41.30054 2.07731 19 ft 0 kts 245°
2026-05-07 15:29 41.30047 2.07711 20 ft 8 kts 245°
2026-05-07 15:29 41.30016 2.07620 18 ft 12 kts 245°
2026-05-07 15:29 41.29973 2.07531 17 ft 12 kts 207°
2026-05-07 15:29 41.29903 2.07486 14 ft 12 kts 243°
2026-05-07 15:30 41.29867 2.07377 14 ft 14 kts 246°
2026-05-07 15:30 41.29821 2.07240 14 ft 14 kts 245°
2026-05-07 15:30 41.29739 2.07196 16 ft 13 kts 216°
2026-05-07 15:30 41.29691 2.07080 17 ft 16 kts 236°
2026-05-07 15:31 41.29584 2.07092 15 ft 17 kts 155°
2026-05-07 15:31 41.29487 2.07159 15 ft 13 kts 127°
2026-05-07 15:31 41.29487 2.07200 16 ft 0 kts 67°
2026-05-07 15:31 41.29536 2.07348 20 ft 48 kts 65°
2026-05-07 15:32 41.29770 2.08031 19 ft 112 kts 65°
2026-05-07 15:32 41.30156 2.09157 195 ft 142 kts 66°
2026-05-07 15:32 41.30570 2.10380 746 ft 153 kts 68°
2026-05-07 15:32 41.31019 2.11699 1353 ft 161 kts 68°
2026-05-07 15:33 41.31522 2.13170 1638 ft 189 kts 66°
2026-05-07 15:33 41.32104 2.14863 1843 ft 213 kts 68°
2026-05-07 15:33 41.32741 2.16708 2164 ft 226 kts 65°
2026-05-07 15:33 41.33668 2.18425 2577 ft 238 kts 42°
2026-05-07 15:34 41.34970 2.19924 2785 ft 256 kts 52°
2026-05-07 15:34 41.36073 2.21817 3425 ft 262 kts 52°
2026-05-07 15:34 41.37224 2.23712 4255 ft 263 kts 52°
2026-05-07 15:34 41.38389 2.25578 5100 ft 263 kts 51°
2026-05-07 15:35 41.39343 2.27647 5828 ft 264 kts 77°
2026-05-07 15:35 41.39285 2.30072 6580 ft 269 kts 108°
2026-05-07 15:35 41.38400 2.32282 7322 ft 274 kts 126°
2026-05-07 15:35 41.37213 2.34302 8033 ft 280 kts 129°
2026-05-07 15:36 41.35961 2.36300 8825 ft 283 kts 130°
2026-05-07 15:36 41.34680 2.38324 9605 ft 288 kts 130°
2026-05-07 15:36 41.33398 2.40358 10312 ft 295 kts 130°
2026-05-07 15:36 41.32007 2.42575 10542 ft 320 kts 130°
2026-05-07 15:37 41.30573 2.44876 11026 ft 333 kts 130°
2026-05-07 15:37 41.29086 2.47270 11756 ft 337 kts 130°
2026-05-07 15:37 41.27588 2.49689 12580 ft 341 kts 130°
2026-05-07 15:37 41.26076 2.52135 13405 ft 344 kts 130°
2026-05-07 15:38 41.24551 2.54603 14255 ft 345 kts 131°
2026-05-07 15:38 41.23036 2.57055 15228 ft 342 kts 132°
2026-05-07 15:38 41.21535 2.59484 16190 ft 340 kts 131°
2026-05-07 15:38 41.20035 2.61909 17099 ft 340 kts 131°
2026-05-07 15:39 41.18536 2.64332 18037 ft 339 kts 132°
2026-05-07 15:39 41.17036 2.66752 18642 ft 341 kts 132°
2026-05-07 15:39 41.15527 2.69186 18930 ft 342 kts 133°
2026-05-07 15:39 41.14015 2.71622 18941 ft 343 kts 133°
2026-05-07 15:40 41.12504 2.74056 18961 ft 341 kts 133°
2026-05-07 15:40 41.10999 2.76478 18965 ft 340 kts 133°
2026-05-07 15:40 41.09495 2.78897 18965 ft 340 kts 133°
2026-05-07 15:40 41.07992 2.81312 18971 ft 339 kts 133°
2026-05-07 15:41 41.06491 2.83721 18958 ft 339 kts 133°
2026-05-07 15:41 41.06474 2.83749 18964 ft 339 kts 133°
2026-05-07 15:41 41.05490 2.85327 18957 ft 339 kts 133°
2026-05-07 15:41 41.03988 2.87736 18953 ft 339 kts 133°
2026-05-07 15:42 41.02488 2.90139 18956 ft 339 kts 133°
2026-05-07 15:42 41.00985 2.92544 18965 ft 339 kts 133°
2026-05-07 15:42 40.99482 2.94948 18953 ft 339 kts 133°
2026-05-07 15:42 40.98000 2.97318 18956 ft 339 kts 133°
2026-05-07 15:43 40.96499 2.99714 18958 ft 338 kts 133°
2026-05-07 15:43 40.94996 3.02113 18955 ft 338 kts 133°
2026-05-07 15:43 40.93493 3.04510 18956 ft 338 kts 133°
2026-05-07 15:43 40.91991 3.06904 18949 ft 339 kts 133°
2026-05-07 15:44 40.90485 3.09303 18952 ft 339 kts 133°
2026-05-07 15:44 40.88978 3.11701 18954 ft 339 kts 133°
2026-05-07 15:44 40.87465 3.14103 18955 ft 340 kts 133°
2026-05-07 15:44 40.86009 3.16569 18952 ft 343 kts 127°
2026-05-07 15:45 40.84773 3.19270 18959 ft 344 kts 123°
2026-05-07 15:45 40.83602 3.22019 18960 ft 344 kts 122°
2026-05-07 15:45 40.82443 3.24781 18955 ft 344 kts 122°
2026-05-07 15:45 40.81282 3.27534 18954 ft 343 kts 123°
2026-05-07 15:46 40.80136 3.30233 18953 ft 342 kts 123°
2026-05-07 15:46 40.79377 3.32010 18954 ft 342 kts 123°
2026-05-07 15:46 40.78206 3.34736 18958 ft 341 kts 123°
2026-05-07 15:47 40.77034 3.37452 18959 ft 341 kts 123°
2026-05-07 15:47 40.75858 3.40170 18955 ft 341 kts 123°
2026-05-07 15:47 40.74682 3.42882 18955 ft 340 kts 123°
2026-05-07 15:47 40.73507 3.45588 18957 ft 340 kts 123°
2026-05-07 15:48 40.72329 3.48296 18955 ft 340 kts 123°
2026-05-07 15:48 40.71151 3.51004 18952 ft 341 kts 123°
2026-05-07 15:48 40.69971 3.53711 18953 ft 341 kts 123°
2026-05-07 15:48 40.68792 3.56414 18954 ft 341 kts 123°
2026-05-07 15:49 40.67610 3.59123 18951 ft 341 kts 123°
2026-05-07 15:49 40.66428 3.61829 18955 ft 341 kts 123°
2026-05-07 15:49 40.65245 3.64535 18954 ft 341 kts 123°
2026-05-07 15:49 40.64062 3.67239 18954 ft 341 kts 123°
2026-05-07 15:50 40.62876 3.69947 18957 ft 341 kts 123°
2026-05-07 15:50 40.61692 3.72647 18951 ft 338 kts 123°
2026-05-07 15:50 40.60531 3.75298 18798 ft 333 kts 123°
2026-05-07 15:50 40.59379 3.77923 18616 ft 329 kts 123°
2026-05-07 15:51 40.58298 3.80382 18326 ft 328 kts 123°
2026-05-07 15:51 40.57516 3.82159 18093 ft 326 kts 123°
2026-05-07 15:51 40.56384 3.84732 17748 ft 324 kts 123°
2026-05-07 15:52 40.55261 3.87282 17421 ft 321 kts 123°
2026-05-07 15:52 40.54146 3.89813 17096 ft 319 kts 123°
2026-05-07 15:52 40.53016 3.92304 16775 ft 314 kts 129°
2026-05-07 15:52 40.51400 3.94104 16490 ft 302 kts 159°
2026-05-07 15:53 40.49389 3.94699 16272 ft 295 kts 177°
2026-05-07 15:53 40.47340 3.94788 16024 ft 295 kts 181°
2026-05-07 15:53 40.45289 3.94739 15771 ft 295 kts 182°
2026-05-07 15:53 40.43232 3.94663 15523 ft 296 kts 182°
2026-05-07 15:54 40.41170 3.94591 15278 ft 297 kts 182°
2026-05-07 15:54 40.39099 3.94531 15030 ft 298 kts 181°
2026-05-07 15:54 40.37028 3.94481 14792 ft 297 kts 181°
2026-05-07 15:54 40.34974 3.94439 14565 ft 293 kts 181°
2026-05-07 15:55 40.32949 3.94403 14327 ft 289 kts 181°
2026-05-07 15:55 40.30970 3.94370 14044 ft 288 kts 181°
2026-05-07 15:55 40.28974 3.94339 13748 ft 286 kts 180°
2026-05-07 15:55 40.26984 3.94309 13408 ft 286 kts 180°
2026-05-07 15:56 40.25167 3.94283 13121 ft 284 kts 180°
2026-05-07 15:56 40.23624 3.94261 12868 ft 283 kts 180°
2026-05-07 15:56 40.22296 3.94242 12653 ft 282 kts 180°
2026-05-07 15:57 40.20335 3.94214 12345 ft 281 kts 180°
2026-05-07 15:57 40.18412 3.94187 12062 ft 279 kts 179°
2026-05-07 15:57 40.16449 3.94159 11754 ft 278 kts 179°
2026-05-07 15:57 40.14545 3.94133 11464 ft 277 kts 179°
2026-05-07 15:58 40.12624 3.94106 11166 ft 275 kts 179°
2026-05-07 15:58 40.10716 3.94080 10869 ft 274 kts 179°
2026-05-07 15:58 40.08810 3.94054 10574 ft 273 kts 179°
2026-05-07 15:58 40.06910 3.94028 10284 ft 273 kts 178°
2026-05-07 15:59 40.05018 3.94002 10073 ft 269 kts 179°
2026-05-07 15:59 40.03163 3.93975 9876 ft 266 kts 178°
2026-05-07 15:59 40.01313 3.93950 9570 ft 265 kts 179°
2026-05-07 15:59 39.99478 3.93924 9285 ft 264 kts 178°
2026-05-07 16:00 39.97644 3.93899 9003 ft 263 kts 179°
2026-05-07 16:00 39.95824 3.93874 8767 ft 260 kts 178°
2026-05-07 16:00 39.94015 3.93849 8485 ft 259 kts 178°
2026-05-07 16:00 39.92218 3.93824 8239 ft 258 kts 178°
2026-05-07 16:01 39.90429 3.93799 7976 ft 257 kts 179°
2026-05-07 16:01 39.88656 3.93631 7800 ft 253 kts 185°
2026-05-07 16:01 39.86922 3.93380 7580 ft 250 kts 181°
2026-05-07 16:01 39.85191 3.93360 7325 ft 249 kts 175°
2026-05-07 16:02 39.83472 3.93575 7066 ft 248 kts 169°
2026-05-07 16:02 39.81778 3.93987 6801 ft 247 kts 165°
2026-05-07 16:02 39.80125 3.94563 6536 ft 246 kts 161°
2026-05-07 16:02 39.78511 3.95294 6264 ft 245 kts 156°
2026-05-07 16:03 39.76952 3.96176 5982 ft 244 kts 152°
2026-05-07 16:03 39.75452 3.97211 5700 ft 243 kts 148°
2026-05-07 16:03 39.74026 3.98391 5431 ft 242 kts 143°
2026-05-07 16:03 39.72682 3.99706 5170 ft 242 kts 139°
2026-05-07 16:04 39.71426 4.01147 4893 ft 241 kts 135°
2026-05-07 16:04 39.70259 4.02709 4619 ft 240 kts 130°
2026-05-07 16:04 39.69195 4.04368 4341 ft 238 kts 126°
2026-05-07 16:04 39.68236 4.06121 4059 ft 238 kts 122°
2026-05-07 16:05 39.67385 4.07955 3787 ft 237 kts 117°
2026-05-07 16:05 39.66645 4.09859 3507 ft 236 kts 114°
2026-05-07 16:05 39.66020 4.11828 3236 ft 235 kts 109°
2026-05-07 16:05 39.65536 4.13843 3034 ft 231 kts 98°
2026-05-07 16:06 39.65805 4.15814 3002 ft 223 kts 58°
2026-05-07 16:06 39.66992 4.17074 3003 ft 224 kts 27°
2026-05-07 16:06 39.68393 4.17768 2983 ft 206 kts 22°
2026-05-07 16:06 39.69706 4.18269 2987 ft 188 kts 19°
2026-05-07 16:07 39.70977 4.18672 3009 ft 189 kts 16°
2026-05-07 16:07 39.72272 4.18976 2834 ft 185 kts 15°
2026-05-07 16:07 39.73497 4.19231 2614 ft 171 kts 13°
2026-05-07 16:07 39.74629 4.19464 2403 ft 167 kts 14°
2026-05-07 16:08 39.75768 4.19699 2178 ft 164 kts 14°
2026-05-07 16:08 39.76889 4.19931 1954 ft 162 kts 15°
2026-05-07 16:08 39.77995 4.20160 1734 ft 160 kts 14°
2026-05-07 16:08 39.79060 4.20379 1515 ft 149 kts 14°
2026-05-07 16:09 39.80056 4.20585 1325 ft 142 kts 14°
2026-05-07 16:09 39.81036 4.20787 1139 ft 142 kts 15°
2026-05-07 16:09 39.82030 4.20994 952 ft 146 kts 14°
2026-05-07 16:09 39.83006 4.21195 742 ft 139 kts 12°
2026-05-07 16:10 39.83935 4.21388 570 ft 131 kts 10°
2026-05-07 16:10 39.84828 4.21570 383 ft 137 kts
2026-05-07 16:10 39.85769 4.21763 298 ft 127 kts
2026-05-07 16:10 39.86423 4.21898 298 ft 63 kts
2026-05-07 16:11 39.86694 4.21957 298 ft 32 kts 16°
2026-05-07 16:11 39.86872 4.22092 305 ft 29 kts 39°
2026-05-07 16:11 39.86927 4.22218 301 ft 14 kts 128°
2026-05-07 16:11 39.86831 4.22223 299 ft 14 kts 187°
2026-05-07 16:12 39.86736 4.22202 294 ft 14 kts 190°
2026-05-07 16:12 39.86631 4.22179 294 ft 18 kts 188°
2026-05-07 16:12 39.86539 4.22253 298 ft 13 kts 101°
2026-05-07 16:12 39.86571 4.22339 294 ft 7 kts 29°
2026-05-07 16:13 39.86578 4.22396 294 ft 7 kts 100°
2026-05-07 16:13 39.86574 4.22423 294 ft 1 kts 99°
2026-05-07 16:13 39.86574 4.22426 294 ft 0 kts 99°